| time (UTC) | temp C | wind direction | speed KPH | gust KPH | rain 1hr cm | rain 24hr cm | rain mn cm | humidity % | barometer mb |
| 20260902101539 | 24 | 0 | 0.0 | 0.0 | 0.00 | 0.48 | 0.00 | 98 | 1016.8 |
| 20260902100034 | 24 | 0 | 0.0 | 0.0 | 0.00 | 0.48 | 0.00 | 98 | 1016.4 |
| 20260902094538 | 24 | 0 | 0.0 | 0.0 | 0.00 | 0.53 | 0.00 | 98 | 1016.3 |
| 20260902093033 | 24 | 0 | 0.0 | 0.0 | 0.00 | 0.53 | 0.00 | 98 | 1016.1 |
| 20260902091542 | 24 | 0 | 0.0 | 0.0 | 0.00 | 0.53 | 0.00 | 98 | 1015.9 |
| 20260902090033 | 24 | 0 | 0.0 | 0.0 | 0.00 | 0.53 | 0.00 | 98 | 1016.0 |
| 20260902084533 | 25 | 0 | 0.0 | 0.0 | 0.00 | 0.53 | 0.00 | 98 | 1016.1 |
| 20260902083031 | 25 | 0 | 0.0 | 0.0 | 0.00 | 0.53 | 0.00 | 98 | 1016.0 |
| 20260902081529 | 25 | 0 | 0.0 | 1.6 | 0.00 | 0.53 | 0.00 | 98 | 1015.8 |
| 20260902080033 | 25 | 0 | 0.0 | 0.0 | 0.00 | 0.53 | 0.00 | 98 | 1015.9 |
| 20260902074534 | 24 | 0 | 0.0 | 0.0 | 0.00 | 0.53 | 0.00 | 98 | 1016.0 |
| 20260902073034 | 24 | 0 | 0.0 | 0.0 | 0.00 | 0.53 | 0.00 | 97 | 1016.2 |
| 20260902071534 | 25 | 0 | 0.0 | 0.0 | 0.00 | 0.53 | 0.00 | 97 | 1016.3 |
| 20260902070033 | 25 | 0 | 0.0 | 0.0 | 0.00 | 0.53 | 0.00 | 97 | 1016.3 |
| 20260902064534 | 24 | 0 | 0.0 | 0.0 | 0.00 | 0.53 | 0.00 | 97 | 1016.3 |
| 20260902063031 | 25 | 0 | 0.0 | 0.0 | 0.00 | 0.53 | 0.00 | 97 | 1016.6 |
| 20260902061541 | 25 | 0 | 0.0 | 0.0 | 0.00 | 0.53 | 0.00 | 97 | 1016.7 |
| 20260902060037 | 25 | 0 | 0.0 | 1.6 | 0.00 | 0.53 | 0.00 | 97 | 1016.9 |
| 20260902054535 | 25 | 0 | 0.0 | 0.0 | 0.00 | 0.53 | 0.00 | 97 | 1017.1 |
| 20260902053037 | 25 | 0 | 0.0 | 1.6 | 0.00 | 0.53 | 0.00 | 97 | 1017.0 |
| 20260902051534 | 25 | 0 | 0.0 | 1.6 | 0.00 | 0.53 | 0.00 | 97 | 1016.9 |
| 20260902050033 | 25 | 21 | 0.0 | 1.6 | 0.00 | 0.53 | 0.00 | 97 | 1017.0 |
| 20260902044531 | 25 | 0 | 0.0 | 0.0 | 0.00 | 0.53 | 0.00 | 97 | 1017.0 |
| 20260902043033 | 25 | 0 | 0.0 | 0.0 | 0.00 | 0.53 | 0.00 | 97 | 1017.0 |
| 20260902041534 | 25 | 0 | 0.0 | 1.6 | 0.00 | 0.53 | 0.00 | 97 | 1017.1 |
| 20260902040030 | 25 | 0 | 0.0 | 4.8 | 0.00 | 0.53 | 0.00 | 97 | 1017.6 |
| 20260902034534 | 25 | 0 | 0.0 | 1.6 | 0.00 | 0.56 | 0.53 | 97 | 1017.6 |
| 20260902033041 | 25 | 0 | 0.0 | 1.6 | 0.00 | 0.56 | 0.53 | 97 | 1017.6 |
| 20260902031533 | 25 | 0 | 0.0 | 0.0 | 0.00 | 0.56 | 0.53 | 97 | 1017.8 |
| 20260902030033 | 25 | 0 | 0.0 | 1.6 | 0.00 | 0.56 | 0.53 | 97 | 1017.9 |
| 20260902024532 | 24 | 0 | 0.0 | 0.0 | 0.00 | 2.16 | 0.53 | 97 | 1017.9 |
| 20260902023031 | 25 | 0 | 0.0 | 0.0 | 0.00 | 2.16 | 0.53 | 97 | 1017.8 |
| 20260902021536 | 24 | 0 | 0.0 | 0.0 | 0.00 | 2.16 | 0.53 | 96 | 1017.5 |
| 20260902020032 | 25 | 0 | 0.0 | 1.6 | 0.00 | 2.16 | 0.53 | 96 | 1017.6 |
| 20260902014539 | 25 | 0 | 0.0 | 0.0 | 0.00 | 2.18 | 0.53 | 96 | 1017.3 |
| 20260902013034 | 25 | 0 | 0.0 | 0.0 | 0.00 | 2.18 | 0.53 | 96 | 1017.1 |
| 20260902011537 | 25 | 0 | 0.0 | 1.6 | 0.03 | 2.18 | 0.53 | 96 | 1017.2 |
| 20260902010052 | 25 | 0 | 0.0 | 1.6 | 0.03 | 2.18 | 0.53 | 95 | 1017.2 |
| 20260902004541 | 24 | 0 | 0.0 | 1.6 | 0.03 | 2.18 | 0.53 | 95 | 1017.3 |
| 20260902003033 | 25 | 224 | 0.0 | 1.6 | 0.05 | 2.18 | 0.53 | 96 | 1017.1 |
| 20260902001533 | 24 | 0 | 0.0 | 1.6 | 0.08 | 2.16 | 0.51 | 96 | 1017.0 |
| 20260902000047 | 24 | 301 | 0.0 | 3.2 | 0.13 | 2.16 | 0.51 | 95 | 1017.2 |
| 20260901234559 | 24 | 0 | 0.0 | 4.8 | 0.36 | 2.16 | 0.51 | 95 | 1017.3 |
| 20260901233031 | 24 | 289 | 0.0 | 6.4 | 0.36 | 2.13 | 0.48 | 94 | 1017.6 |
| 20260901231545 | 25 | 0 | 0.0 | 8.0 | 0.28 | 2.06 | 0.41 | 94 | 1017.3 |
| 20260901230033 | 25 | 0 | 0.0 | 9.7 | 0.25 | 2.03 | 0.38 | 92 | 1017.6 |
| 20260901224537 | 26 | 304 | 4.8 | 29.0 | 0.00 | 2.06 | 0.13 | 88 | 1018.1 |
| 20260901223044 | 28 | 234 | 3.2 | 24.1 | 0.00 | 2.06 | 0.13 | 81 | 1017.3 |
| 20260901221537 | 30 | 0 | 1.6 | 4.8 | 0.00 | 2.06 | 0.13 | 81 | 1017.0 |
| 20260901220037 | 30 | 0 | 0.0 | 6.4 | 0.00 | 2.06 | 0.13 | 81 | 1016.7 |
| 20260901214535 | 30 | 79 | 0.0 | 6.4 | 0.00 | 2.06 | 0.13 | 80 | 1016.6 |
| 20260901213032 | 30 | 98 | 1.6 | 9.7 | 0.00 | 2.06 | 0.13 | 81 | 1016.3 |
| 20260901211542 | 30 | 80 | 3.2 | 14.5 | 0.00 | 2.06 | 0.13 | 80 | 1015.8 |
| 20260901210033 | 30 | 61 | 3.2 | 12.9 | 0.00 | 2.06 | 0.13 | 80 | 1016.0 |
| 20260901204542 | 31 | 159 | 4.8 | 12.9 | 0.00 | 2.06 | 0.13 | 80 | 1016.0 |
| 20260901203034 | 31 | 101 | 4.8 | 11.3 | 0.00 | 2.06 | 0.13 | 80 | 1015.6 |
| 20260901201532 | 31 | 87 | 3.2 | 12.9 | 0.00 | 2.06 | 0.13 | 79 | 1016.0 |
| 20260901200052 | 31 | 82 | 3.2 | 12.9 | 0.00 | 2.06 | 0.13 | 80 | 1016.1 |
| 20260901194545 | 31 | 83 | 1.6 | 12.9 | 0.00 | 2.06 | 0.13 | 81 | 1016.5 |
| 20260901193034 | 31 | 76 | 1.6 | 14.5 | 0.00 | 2.06 | 0.13 | 80 | 1016.8 |
| 20260901191534 | 31 | 90 | 4.8 | 16.1 | 0.00 | 2.06 | 0.13 | 79 | 1016.8 |
| 20260901190036 | 31 | 77 | 3.2 | 11.3 | 0.00 | 2.06 | 0.13 | 79 | 1016.9 |
| 20260901184533 | 31 | 122 | 4.8 | 12.9 | 0.00 | 2.06 | 0.13 | 78 | 1017.2 |
| 20260901183040 | 31 | 51 | 1.6 | 11.3 | 0.00 | 2.06 | 0.13 | 79 | 1017.5 |
| 20260901181535 | 30 | 87 | 1.6 | 11.3 | 0.00 | 2.06 | 0.13 | 80 | 1017.7 |
| 20260901180031 | 30 | 93 | 0.0 | 9.7 | 0.00 | 2.06 | 0.13 | 80 | 1017.6 |
| 20260901174530 | 31 | 76 | 0.0 | 6.4 | 0.00 | 2.16 | 0.13 | 79 | 1017.6 |
| 20260901173031 | 30 | 52 | 1.6 | 8.0 | 0.00 | 2.16 | 0.13 | 79 | 1017.9 |
| 20260901171533 | 30 | 95 | 1.6 | 6.4 | 0.00 | 2.16 | 0.13 | 80 | 1018.3 |
| 20260901170031 | 31 | 103 | 3.2 | 9.7 | 0.00 | 2.16 | 0.13 | 78 | 1018.4 |
| 20260901164531 | 31 | 117 | 0.0 | 6.4 | 0.00 | 2.16 | 0.13 | 76 | 1018.3 |
| 20260901163031 | 31 | 47 | 1.6 | 6.4 | 0.00 | 2.16 | 0.13 | 78 | 1018.5 |
| 20260901161532 | 30 | 0 | 1.6 | 4.8 | 0.00 | 2.16 | 0.13 | 80 | 1018.6 |
| 20260901160032 | 30 | 0 | 0.0 | 4.8 | 0.00 | 2.16 | 0.13 | 83 | 1018.6 |
| 20260901154537 | 30 | 0 | 0.0 | 3.2 | 0.00 | 2.16 | 0.13 | 81 | 1018.4 |
| 20260901153038 | 30 | 0 | 0.0 | 1.6 | 0.00 | 2.16 | 0.13 | 81 | 1018.5 |
| 20260901151535 | 30 | 74 | 0.0 | 4.8 | 0.00 | 2.16 | 0.13 | 81 | 1018.5 |
| 20260901150037 | 30 | 0 | 0.0 | 1.6 | 0.00 | 2.16 | 0.13 | 80 | 1018.4 |
| 20260901144538 | 30 | 0 | 0.0 | 4.8 | 0.00 | 2.16 | 0.13 | 83 | 1018.2 |
| 20260901143041 | 30 | 21 | 0.0 | 4.8 | 0.00 | 2.16 | 0.13 | 84 | 1018.0 |
| 20260901141534 | 28 | 0 | 1.6 | 6.4 | 0.00 | 2.16 | 0.13 | 87 | 1018.3 |
| 20260901140035 | 28 | 0 | 0.0 | 6.4 | 0.00 | 2.16 | 0.13 | 90 | 1018.1 |
| 20260901134535 | 27 | 0 | 1.6 | 9.7 | 0.00 | 2.16 | 0.13 | 93 | 1017.8 |
| 20260901133042 | 27 | 34 | 0.0 | 4.8 | 0.00 | 2.16 | 0.13 | 94 | 1017.9 |
| 20260901131535 | 26 | 307 | 0.0 | 3.2 | 0.00 | 2.16 | 0.13 | 95 | 1017.9 |
| 20260901130034 | 26 | 311 | 0.0 | 8.0 | 0.00 | 2.16 | 0.13 | 96 | 1017.7 |
| 20260901124538 | 26 | 313 | 0.0 | 4.8 | 0.00 | 2.18 | 0.13 | 97 | 1017.5 |
| 20260901123031 | 25 | 309 | 0.0 | 1.6 | 0.00 | 2.18 | 0.13 | 98 | 1017.5 |
| 20260901121545 | 25 | 309 | 0.0 | 0.0 | 0.00 | 2.18 | 0.13 | 98 | 1017.5 |
| 20260901120031 | 25 | 0 | 0.0 | 0.0 | 0.00 | 2.18 | 0.13 | 98 | 1017.3 |
| 20260901114532 | 25 | 0 | 0.0 | 3.2 | 0.00 | 2.18 | 0.13 | 98 | 1017.1 |
| 20260901113033 | 25 | 0 | 0.0 | 1.6 | 0.00 | 2.18 | 0.13 | 98 | 1017.0 |
| 20260901111540 | 25 | 0 | 0.0 | 3.2 | 0.00 | 2.18 | 0.13 | 98 | 1016.8 |
| 20260901110042 | 25 | 309 | 0.0 | 1.6 | 0.05 | 2.18 | 0.13 | 98 | 1016.7 |
| 20260901104534 | 25 | 0 | 0.0 | 0.0 | 0.13 | 2.18 | 0.13 | 98 | 1016.5 |
| 20260901103033 | 25 | 0 | 0.0 | 4.8 | 0.13 | 2.18 | 0.13 | 98 | 1016.4 |